User: anonymous   Login
Location: Unspecified
(0.0000°N, 0.0000°E)
Time: 13:42:13
(UTC+00:00)
Language:

Transit 4B - Orbit

View from above orbital plane
View from above orbital plane
View from above satellite
View from above satellite

Ground track
Ground track

The orbit data is extracted from the following two-line orbital elements,

1   202U 61031A   17114.63016094 +.00000038 +00000-0 +21402-4 0  9992
2   202 032.4366 169.2087 0101242 047.1976 313.7106 13.63502052764765
Epoch (UTC): 24 April 2017 15:07:25
Eccentricity: 0.0101242
inclination: 32.4366°
perigee height: 948 km
apogee height: 1098 km
right ascension of ascending node: 169.2087°
argument of perigee: 47.1976°
revolutions per day: 13.63502052
mean anomaly at epoch: 313.7106°
orbit number at epoch: 76476

The dashed part of the orbit path shows where the satellite is in the earth's shadow,  

DLR